Saranac Lake, NY

3:58 AM EDT on July 24, 2017 (GMT -0400)
Adirondack Regional

Weather History for KSLK - October, 2011

Change the Weather History Date:

Tuesday, October 4, 2011

  Actual Average Record
Temperature  
Mean Temperature 53 °F 46 °F  
Max Temperature 56 °F 58 °F 81 °F (1953)
Min Temperature 49 °F 35 °F 19 °F (1996)
Degree Days  
Heating Degree Days 12 19  
Month to date heating degree days 62 74  
Since 1 July heating degree days 412 659  
Cooling Degree Days 0 0  
Month to date cooling degree days 0 0  
Year to date cooling degree days 133 114  
Growing Degree Days 2 (Base 50)    
Moisture  
Dew Point 50 °F    
Average Humidity 90    
Maximum Humidity 96    
Minimum Humidity 83    
Precipitation  
Precipitation 0.05 in 0.13 in 0.76 in (1987)
Month to date precipitation 0.39 0.49  
Year to date precipitation 36.41 28.32  
Sea Level Pressure  
Sea Level Pressure 30.06 in    
Wind  
Wind Speed 3 mph (North)    
Max Wind Speed 9 mph    
Max Gust Speed 26 mph    
Visibility 7 miles    
Events Rain    
T = Trace of Precipitation, MM = Missing Value Source: NWS Daily Summary

Daily Weather History Graph

Daily Weather History Graph

Search for Another Location

Airport or City:

Trip Planner

Search our weather history database for the weather conditions in past years. The results will help you decide how hot, cold, wet, or windy it might be!

Date:

Astronomy

Oct. 04, 2011 Rise Set
Actual Time 6:57 AM EDT 6:32 PM EDT
Civil Twilight 6:28 AM EDT 7:01 PM EDT
Nautical Twilight 5:55 AM EDT 7:35 PM EDT
Astronomical Twilight 5:21 AM EDT 8:09 PM EDT
Moon 2:47 PM EDT (10/4) No Moon Set
Length of Visible Light 12h 32m
Length of Day
11h 34m
First Quarter, 56% of the Moon is Illuminated
Oct 4
First Quarter
Oct 11
Full
Oct 19
Last Quarter
Oct 26
New
Nov 2
First Quarter

Hourly Weather History & Observations

Time (EDT) Temp. Dew Point Humidity Pressure Visibility Wind Dir Wind Speed Gust Speed Precip Events Conditions
12:51 AM 50.0 °F 48.9 °F 96% 30.06 in 9.0 mi Calm Calm - N/A   Overcast
1:51 AM 50.0 °F 48.9 °F 96% 30.06 in 10.0 mi NE 4.6 mph - N/A   Overcast
2:51 AM 50.0 °F 48.9 °F 96% 30.04 in 8.0 mi Calm Calm - N/A   Overcast
3:42 AM 50.0 °F 48.2 °F 94% 30.04 in 10.0 mi East 3.5 mph - N/A   Overcast
3:51 AM 50.0 °F 48.9 °F 96% 30.04 in 10.0 mi Calm Calm - N/A   Overcast
4:15 AM 50.0 °F 48.2 °F 94% 30.03 in 10.0 mi Calm Calm - N/A   Overcast
4:46 AM 50.0 °F 48.2 °F 94% 30.04 in 5.0 mi Calm Calm - 0.01 in Rain Light Rain
4:51 AM 50.0 °F 48.9 °F 96% 30.04 in 6.0 mi Calm Calm - 0.01 in Rain Light Rain
5:36 AM 50.0 °F 48.2 °F 94% 30.04 in 10.0 mi Calm Calm - 0.00 in   Overcast
5:51 AM 50.0 °F 48.9 °F 96% 30.04 in 9.0 mi Calm Calm - 0.00 in   Overcast
6:31 AM 50.0 °F 48.2 °F 94% 30.04 in 9.0 mi Calm Calm - N/A   Overcast
6:51 AM 50.0 °F 48.9 °F 96% 30.06 in 8.0 mi Calm Calm - N/A   Overcast
7:11 AM 50.0 °F 48.2 °F 94% 30.05 in 7.0 mi Calm Calm - N/A   Overcast
7:51 AM 50.0 °F 48.9 °F 96% 30.08 in 4.0 mi NNW 3.5 mph - N/A   Overcast
8:51 AM 50.0 °F 48.9 °F 96% 30.09 in 9.0 mi Variable 3.5 mph - N/A   Overcast
9:43 AM 53.6 °F 50.0 °F 88% 30.07 in 10.0 mi Variable 3.5 mph - N/A   Overcast
9:51 AM 53.1 °F 48.9 °F 86% 30.09 in 10.0 mi North 4.6 mph - N/A   Overcast
10:21 AM 53.6 °F 48.2 °F 82% 30.07 in 10.0 mi NNW 3.5 mph - N/A   Overcast
10:27 AM 53.6 °F 50.0 °F 88% 30.07 in 10.0 mi Calm Calm - N/A   Overcast
10:51 AM 55.0 °F 50.0 °F 83% 30.08 in 10.0 mi Calm Calm - N/A   Overcast
11:16 AM 53.6 °F 50.0 °F 88% 30.07 in 10.0 mi NW 3.5 mph - N/A   Overcast
11:51 AM 55.4 °F 50.0 °F 82% 30.06 in 10.0 mi NW 4.6 mph - N/A   Overcast
12:40 PM 53.6 °F 50.0 °F 88% 30.05 in 10.0 mi Variable 4.6 mph - N/A   Overcast
12:51 PM 54.0 °F 50.0 °F 86% 30.07 in 10.0 mi Variable 3.5 mph - N/A   Overcast
1:51 PM 53.1 °F 50.0 °F 89% 30.07 in 8.0 mi Variable 6.9 mph - N/A   Overcast
2:48 PM 53.6 °F 50.0 °F 88% 30.05 in 6.0 mi Variable 4.6 mph - N/A   Overcast
2:51 PM 53.6 °F 50.0 °F 88% 30.05 in 7.0 mi North 4.6 mph - N/A   Overcast
3:24 PM 53.6 °F 50.0 °F 88% 30.05 in 7.0 mi NW 5.8 mph - N/A   Overcast
3:47 PM 53.6 °F 51.8 °F 94% 30.05 in 1.8 mi North 4.6 mph - 0.00 in Rain Light Rain
3:51 PM 53.1 °F 51.1 °F 93% 30.06 in 1.2 mi NNW 4.6 mph - 0.01 in Rain Light Rain
4:04 PM 53.6 °F 51.8 °F 94% 30.05 in 3.0 mi Variable 4.6 mph - 0.00 in   Overcast
4:51 PM 53.1 °F 51.1 °F 93% 30.06 in 10.0 mi NNW 4.6 mph - 0.00 in   Overcast
5:09 PM 53.6 °F 50.0 °F 88% 30.05 in 10.0 mi Variable 4.6 mph - N/A   Overcast
5:47 PM 51.8 °F 50.0 °F 94% 30.06 in 5.0 mi Variable 3.5 mph - 0.00 in Rain Light Rain
5:51 PM 52.0 °F 50.0 °F 93% 30.07 in 5.0 mi Variable 6.9 mph - 0.00 in Rain Light Rain
6:03 PM 51.8 °F 50.0 °F 94% 30.06 in 6.0 mi North 5.8 mph - 0.00 in   Overcast
6:33 PM 51.8 °F 50.0 °F 94% 30.06 in 9.0 mi Calm Calm - 0.00 in   Overcast
6:40 PM 51.8 °F 50.0 °F 94% 30.06 in 9.0 mi Calm Calm - 0.00 in   Overcast
6:51 PM 52.0 °F 50.0 °F 93% 30.08 in 10.0 mi Calm Calm - 0.00 in   Overcast
7:08 PM 51.8 °F 50.0 °F 94% 30.06 in 1.8 mi Variable 3.5 mph - 0.01 in   Overcast
7:21 PM 51.8 °F 50.0 °F 94% 30.06 in 2.0 mi Calm Calm - 0.01 in   Overcast
7:42 PM 51.8 °F 50.0 °F 94% 30.06 in 3.0 mi Calm Calm - 0.01 in   Overcast
7:51 PM 51.1 °F 50.0 °F 96% 30.08 in 3.0 mi Calm Calm - 0.01 in   Overcast
7:59 PM 51.8 °F 50.0 °F 94% 30.06 in 2.0 mi Calm Calm - N/A   Overcast
8:13 PM 51.8 °F 50.0 °F 94% 30.06 in 5.0 mi Calm Calm - N/A   Overcast
8:51 PM 51.1 °F 50.0 °F 96% 30.08 in 4.0 mi NNE 5.8 mph - 0.01 in   Overcast
9:51 PM 51.1 °F 48.9 °F 92% 30.07 in 4.0 mi Calm Calm - N/A   Overcast
10:05 PM 50.0 °F 48.2 °F 94% 30.06 in 2.5 mi Calm Calm - N/A   Overcast
10:29 PM 51.8 °F 48.2 °F 88% 30.06 in 4.0 mi Calm Calm - 0.01 in   Overcast
10:51 PM 51.8 °F 48.2 °F 88% 30.06 in 7.0 mi Calm Calm - N/A   Overcast
11:51 PM 51.1 °F 48.9 °F 92% 30.07 in 10.0 mi Variable 3.5 mph - N/A   Overcast